COSMOS 663 DEB, 45505

Orbit data source: Space-Track

COSMOS 663 DEB, 45505 is space debris in LEO originally from a launch on Thu, 27 Jun 1974 UTC launched from the Plesetsk Missile And Space Complex (PKMTR). Debris objects in space refer to the collection of defunct objects orbiting the Earth. Examples of debris include non-operational satellites, rocket bodies, and fragments generated from explosions, collisions, or faulty payload assembly.

Loading next visibility...
Identifier
45505, 1974-048C
Orbit
LEO
Country
Flag of CISCIS
Related business
Manufacturer
Unknown
Mission
Spacecraft
Bus & Motor
Unknown
Mass
Unknown
Launch date (UTC)
1974-06-27 (52 years ago)
Launch vehicle
Unknown
Launch site
Plesetsk Missile And Space Complex (PKMTR)
Object type
Payload
Rocket body
Debris
Shape & HBR
Unknown shape, 0.1 m
Radar Cross Section
Small (<0.1 m²)

Expand to show TLE details & history
Last TLE update: 6 days ago

TLE from 6 days ago
0 COSMOS 663 DEB
1 45505U 74048C   26167.32185359  .00000387  00000-0  36363-3 0  9992
2 45505  82.9489 167.3084 0022330 217.4999 142.4603 13.78984880611779
Epoch: 2026-06-16T07:43Z
TLE epoch observation values (Epoch: 2026-06-16T07:43:28.150Z)
Latitude
0.00002°
Longitude
146.84555°
Altitude
983.417 km
Speed
7.353 km/s
True Right ascension
11h 09m 14s
True Declination
0° 00' 00"
Sunlit
Object was in daylight at epoch
Visualization orbit readout
Latitude
Unknown
Longitude
Unknown
Altitude
Unknown
Speed
Unknown
Apparent Right ascension
Unknown
Apparent Declination
Unknown
Sunlit
N/A
Visualization observer readout
Local Sidereal Time
21:29:57
Azimuth
Unknown
Elevation
Unknown
Doppler factor
Unknown
Orbital elements
Apogee altitude
981.029 km
Perigee altitude
948.236 km
Semi-major axis
7,342.769 km
Eccentricity
0.00223
Inclination
82.9489°
RAAN
167.3084°
Arg. of periapsis
217.4999°
True anomaly
142.61587°
Mean anomaly
142.4603°
Eccentric anomaly
142.53812°
Mean motion
3.44948 °/min
Orbital period
104.36 mins
BSTAR
0.00036363
Loading maneuver chart data...
Computing Atmospheric mass density...
Loading historical data...
Loading historical data...
Loading historical data...
Loading historical data...
Loading historical data...
Loading historical data...
Loading historical data...
Other satellites on launch #48 in the year 1974 (1974-06-27 UTC)

Documentation

Showing up to 5 results
|